GW4110 Weather Reports


time (UTC)temp
C
wind
direction
speed
KPH
gust
KPH
rain 1hr
cm
rain 24hr
cm
rain mn
cm
humidity
%
barometer
mb
20260506232218 23 292 4.8 11.3 0.00 0.00 0.00 55 1019.0
20260506231716 23 339 3.2 4.8 0.00 0.00 0.00 56 1019.2
20260506231214 23 348 8.0 11.3 0.00 0.00 0.00 55 1019.1
20260506230710 23 319 9.7 12.9 0.00 0.00 0.00 56 1019.3
20260506230208 23 313 8.0 11.3 0.00 0.00 0.00 54 1019.3
20260506225704 23 324 6.4 9.7 0.00 0.00 0.00 54 1019.4
20260506225201 22 2 8.0 11.3 0.00 0.00 0.00 56 1019.4
20260506224657 23 303 12.9 16.1 0.00 0.00 0.00 56 1019.5
20260506224154 23 330 9.7 12.9 0.00 0.00 0.00 57 1019.4
20260506223651 23 189 3.2 4.8 0.00 0.00 0.00 54 1019.3
20260506223146 23 348 8.0 11.3 0.00 0.00 0.00 55 1019.4
20260506222644 24 198 1.6 3.2 0.00 0.00 0.00 56 1019.7
20260506222139 24 62 3.2 3.2 0.00 0.00 0.00 56 1019.4
20260506221637 24 55 3.2 4.8 0.00 0.00 0.00 54 1019.7
20260506221135 24 300 1.6 3.2 0.00 0.00 0.00 54 1019.6
20260506220632 25 342 3.2 4.8 0.00 0.00 0.00 52 1019.7
20260506220127 23 287 6.4 9.7 0.00 0.00 0.00 55 1019.7
20260506215624 25 167 0.0 1.6 0.00 0.00 0.00 52 1019.8
20260506215119 25 321 6.4 9.7 0.00 0.00 0.00 53 1019.8
20260506214616 23 81 1.6 1.6 0.00 0.00 0.00 53 1019.8
20260506214114 25 11 4.8 4.8 0.00 0.00 0.00 50 1019.9
20260506213612 24 330 1.6 3.2 0.00 0.00 0.00 52 1020.2
20260506213109 24 327 8.0 9.7 0.00 0.00 0.00 52 1020.0
20260506212606 23 8 1.6 1.6 0.00 0.00 0.00 53 1020.1
20260506212100 23 244 3.2 4.8 0.00 0.00 0.00 54 1020.1
20260506211556 23 347 6.4 6.4 0.00 0.00 0.00 55 1020.3
20260506211053 23 178 1.6 1.6 0.00 0.00 0.00 54 1020.2
20260506210544 24 150 6.4 9.7 0.00 0.00 0.00 53 1020.5
20260506210041 24 284 1.6 1.6 0.00 0.00 0.00 52 1020.3
20260506205538 25 24 6.4 6.4 0.00 0.00 0.00 51 1020.2
20260506205033 23 156 1.6 1.6 0.00 0.00 0.00 53 1020.4
20260506204532 23 145 0.0 1.6 0.00 0.00 0.00 54 1020.4
20260506204028 22 277 0.0 1.6 0.00 0.00 0.00 56 1020.5
20260506203527 23 110 0.0 0.0 0.00 0.00 0.00 54 1020.6
20260506203023 22 318 3.2 3.2 0.00 0.00 0.00 56 1020.6
20260506202520 22 258 3.2 4.8 0.00 0.00 0.00 55 1020.6
20260506202016 22 328 4.8 6.4 0.00 0.00 0.00 55 1020.8
20260506201514 22 156 3.2 3.2 0.00 0.00 0.00 53 1020.8
20260506201010 22 307 4.8 4.8 0.00 0.00 0.00 55 1021.0
20260506200507 22 18 4.8 4.8 0.00 0.00 0.00 56 1020.9
20260506200003 22 337 3.2 4.8 0.00 0.00 0.00 54 1021.0
20260506195500 22 160 1.6 1.6 0.00 0.00 0.00 55 1021.0
20260506194956 21 351 3.2 4.8 0.00 0.00 0.00 56 1021.0
20260506194453 21 179 0.0 0.0 0.00 0.00 0.00 56 1020.9
20260506193945 21 19 6.4 6.4 0.00 0.00 0.00 56 1021.0
20260506193442 21 267 4.8 4.8 0.00 0.00 0.00 58 1021.1
20260506192939 21 162 1.6 1.6 0.00 0.00 0.00 58 1021.1
20260506192436 21 152 1.6 1.6 0.00 0.00 0.00 58 1021.0
20260506191932 21 153 1.6 1.6 0.00 0.00 0.00 60 1021.2
20260506191429 21 80 3.2 4.8 0.00 0.00 0.00 59 1021.2
20260506190925 21 326 3.2 3.2 0.00 0.00 0.00 58 1021.2
20260506190421 20 320 3.2 3.2 0.00 0.00 0.00 60 1021.1
20260506185913 21 310 4.8 4.8 0.00 0.00 0.00 59 1021.2
20260506185410 21 197 1.6 1.6 0.00 0.00 0.00 59 1021.2
20260506184908 21 122 1.6 1.6 0.00 0.00 0.00 61 1021.4
20260506184404 20 17 3.2 3.2 0.00 0.00 0.00 63 1021.4
20260506183902 20 235 3.2 4.8 0.00 0.00 0.00 61 1021.6
20260506183357 20 317 3.2 3.2 0.00 0.00 0.00 63 1021.4
20260506182854 20 299 3.2 9.7 0.00 0.00 0.00 62 1021.5
20260506182351 20 122 0.0 1.6 0.00 0.00 0.00 63 1021.6
20260506181848 19 243 1.6 1.6 0.00 0.00 0.00 65 1021.3
20260506181346 19 291 6.4 9.7 0.00 0.00 0.00 65 1021.5
20260506180843 20 149 0.0 0.0 0.00 0.00 0.00 63 1021.4
20260506180339 18 191 1.6 1.6 0.00 0.00 0.00 66 1021.4
20260506175836 18 347 6.4 6.4 0.00 0.00 0.00 65 1021.6
20260506175332 18 46 1.6 1.6 0.00 0.00 0.00 67 1021.4
20260506174830 18 193 0.0 0.0 0.00 0.00 0.00 68 1021.7
20260506174327 18 221 1.6 3.2 0.00 0.00 0.00 67 1021.6
20260506173825 18 358 1.6 1.6 0.00 0.00 0.00 67 1021.5
20260506173321 17 225 3.2 3.2 0.00 0.00 0.00 69 1021.4
20260506172818 17 201 0.0 1.6 0.00 0.00 0.00 70 1021.5
20260506172315 17 312 1.6 1.6 0.00 0.00 0.00 71 1021.6
20260506171812 17 296 3.2 4.8 0.00 0.00 0.00 71 1021.6
20260506171309 17 187 0.0 0.0 0.00 0.00 0.00 72 1021.8
20260506170807 17 185 3.2 4.8 0.00 0.00 0.00 72 1021.7
20260506170303 16 195 1.6 1.6 0.00 0.00 0.00 73 1021.6
20260506165802 16 190 1.6 1.6 0.00 0.00 0.00 73 1021.5
20260506165259 16 216 1.6 1.6 0.00 0.00 0.00 73 1021.6
20260506164756 16 231 1.6 1.6 0.00 0.00 0.00 73 1021.6
20260506164252 16 234 0.0 1.6 0.00 0.00 0.00 74 1021.6
20260506163749 16 238 0.0 0.0 0.00 0.00 0.00 74 1021.8
20260506163244 16 199 1.6 1.6 0.00 0.00 0.00 74 1021.7
20260506162740 16 246 1.6 1.6 0.00 0.00 0.00 75 1021.6
20260506162238 16 241 3.2 4.8 0.00 0.00 0.00 75 1021.7
20260506161735 16 305 1.6 3.2 0.00 0.00 0.00 75 1021.6
20260506161232 16 331 3.2 4.8 0.00 0.00 0.00 76 1021.6
20260506160730 16 251 1.6 3.2 0.00 0.00 0.00 76 1021.6
20260506160226 16 198 0.0 0.0 0.00 0.00 0.00 77 1021.6
20260506155725 15 191 0.0 0.0 0.00 0.00 0.00 78 1021.5
20260506155221 15 191 0.0 1.6 0.00 0.00 0.00 78 1021.6
20260506153329 15 189 0.0 0.0 0.00 0.00 0.00 80 1021.6
20260506152826 15 193 0.0 1.6 0.00 0.00 0.00 80 1021.6
20260506152323 14 245 0.0 0.0 0.00 0.00 0.00 81 1021.5
20260506151822 14 199 0.0 0.0 0.00 0.00 0.00 81 1021.6
20260506151318 14 206 0.0 0.0 0.00 0.00 0.00 81 1021.5
20260506150815 14 199 0.0 0.0 0.00 0.00 0.00 82 1021.6
20260506150312 14 172 0.0 0.0 0.00 0.00 0.00 82 1021.8
20260506145809 13 201 0.0 0.0 0.00 0.00 0.00 82 1021.6
20260506145306 13 199 0.0 0.0 0.00 0.00 0.00 83 1021.5
20260506144803 13 209 0.0 0.0 0.00 0.00 0.00 83 1021.6
20260506144259 13 170 0.0 0.0 0.00 0.00 0.00 83 1021.5
20260506143758 13 189 0.0 0.0 0.00 0.00 0.00 84 1021.5
20260506143254 13 201 0.0 0.0 0.00 0.00 0.00 84 1021.5
20260506142753 13 185 0.0 0.0 0.00 0.00 0.00 84 1021.5
20260506142250 13 207 0.0 0.0 0.00 0.00 0.00 84 1021.4
20260506141749 13 192 0.0 0.0 0.00 0.00 0.00 84 1021.4
20260506141246 13 212 0.0 0.0 0.00 0.00 0.00 84 1021.3
20260506140744 13 238 0.0 0.0 0.00 0.00 0.00 84 1021.2
20260506140241 13 257 0.0 1.6 0.00 0.00 0.00 84 1021.3
20260506135738 13 208 0.0 0.0 0.00 0.00 0.00 85 1021.2
20260506135234 13 190 0.0 0.0 0.00 0.00 0.00 85 1021.1
20260506134731 13 213 1.6 1.6 0.00 0.00 0.00 85 1021.1
20260506134227 13 228 1.6 3.2 0.00 0.00 0.00 85 1020.8
20260506133724 13 206 1.6 1.6 0.00 0.00 0.00 85 1020.8
20260506133221 13 200 0.0 0.0 0.00 0.00 0.00 85 1020.7
20260506132718 13 196 0.0 0.0 0.00 0.00 0.00 85 1020.8
20260506132215 13 216 0.0 0.0 0.00 0.00 0.00 85 1020.5
20260506131713 13 201 0.0 0.0 0.00 0.00 0.00 85 1020.7
20260506131209 13 220 1.6 1.6 0.00 0.00 0.00 85 1020.6
20260506130706 13 196 0.0 0.0 0.00 0.00 0.00 85 1020.5
20260506130203 13 194 0.0 0.0 0.00 0.00 0.00 85 1020.5
20260506125701 13 254 0.0 0.0 0.00 0.00 0.00 85 1020.6
20260506125158 13 198 0.0 0.0 0.00 0.00 0.00 85 1020.4
20260506124655 13 235 0.0 0.0 0.00 0.00 0.00 85 1020.6
20260506124154 13 34 0.0 0.0 0.00 0.00 0.00 85 1020.5
20260506123651 13 34 0.0 0.0 0.00 0.00 0.00 85 1020.4
20260506123150 13 34 0.0 0.0 0.00 0.00 0.00 85 1020.3
20260506122646 13 268 1.6 1.6 0.00 0.00 0.00 85 1020.5
20260506122144 13 305 0.0 0.0 0.00 0.00 0.00 85 1020.3
20260506121641 13 191 0.0 0.0 0.00 0.00 0.00 85 1020.4
20260506121137 13 176 0.0 0.0 0.00 0.00 0.00 85 1020.4
20260506120636 13 210 0.0 0.0 0.00 0.00 0.00 85 1020.3
20260506120132 13 200 0.0 0.0 0.00 0.00 0.00 85 1020.2
20260506115631 13 187 0.0 0.0 0.00 0.00 0.00 85 1020.3
20260506115129 13 193 0.0 0.0 0.00 0.00 0.00 85 1020.3
20260506114626 13 201 0.0 0.0 0.00 0.00 0.00 85 1020.1
20260506114124 13 197 0.0 0.0 0.00 0.00 0.00 86 1020.2
20260506113622 13 192 0.0 0.0 0.00 0.00 0.00 86 1020.2
20260506113119 13 187 0.0 0.0 0.00 0.00 0.00 86 1020.1
20260506112615 13 180 0.0 0.0 0.00 0.00 0.00 86 1019.9
20260506112113 13 193 0.0 0.0 0.00 0.00 0.00 86 1020.1
20260506111610 13 187 0.0 0.0 0.00 0.00 0.00 86 1020.2
20260506111108 13 186 0.0 0.0 0.00 0.00 0.00 86 1020.2
20260506110605 13 186 0.0 0.0 0.00 0.00 0.00 86 1020.0
20260506105558 13 201 0.0 0.0 0.00 0.00 0.00 86 1019.9
20260506105055 13 188 0.0 0.0 0.00 0.00 0.00 85 1020.1
20260506104554 13 189 0.0 0.0 0.00 0.00 0.00 85 1019.9
20260506104051 13 199 0.0 0.0 0.00 0.00 0.00 84 1019.8
20260506103548 13 198 0.0 0.0 0.00 0.00 0.00 84 1019.8
20260506103045 13 302 0.0 0.0 0.00 0.00 0.00 84 1019.9
20260506102543 13 302 0.0 0.0 0.00 0.00 0.00 84 1019.9
20260506102040 13 188 0.0 0.0 0.00 0.00 0.00 84 1019.8
20260506101537 13 203 0.0 0.0 0.00 0.00 0.00 84 1019.8
20260506101034 13 197 0.0 0.0 0.00 0.00 0.00 84 1019.9
20260506100532 13 205 0.0 0.0 0.00 0.00 0.00 84 1020.0
20260506100030 13 186 0.0 0.0 0.00 0.00 0.00 84 1019.6
20260506095529 13 331 1.6 1.6 0.00 0.00 0.00 84 1019.9
20260506095024 13 191 0.0 0.0 0.00 0.00 0.00 84 1019.7
20260506094522 13 187 0.0 0.0 0.00 0.00 0.00 84 1019.7
20260506094020 13 198 0.0 0.0 0.00 0.00 0.00 83 1019.8
20260506093518 13 204 0.0 1.6 0.00 0.00 0.00 83 1019.9
20260506093015 13 184 0.0 0.0 0.00 0.00 0.00 83 1019.9
20260506092513 13 190 0.0 0.0 0.00 0.00 0.00 83 1020.0
20260506092009 13 304 1.6 3.2 0.00 0.00 0.00 83 1019.9
20260506091508 13 311 0.0 0.0 0.00 0.00 0.00 83 1020.0
20260506091004 13 312 0.0 0.0 0.00 0.00 0.00 83 1019.8
20260506090503 13 194 0.0 0.0 0.00 0.00 0.00 83 1019.8
20260506085958 13 171 0.0 0.0 0.00 0.00 0.00 83 1019.9
20260506085455 13 173 0.0 0.0 0.00 0.00 0.00 83 1019.7
20260506084952 13 250 3.2 4.8 0.00 0.00 0.00 83 1019.8
20260506084449 13 216 0.0 1.6 0.00 0.00 0.00 83 1019.8
20260506083945 13 319 1.6 1.6 0.00 0.00 0.00 82 1019.9
20260506083443 13 337 0.0 0.0 0.00 0.00 0.00 82 1020.0
20260506082940 13 250 1.6 1.6 0.00 0.00 0.00 82 1019.9
20260506082437 13 271 1.6 1.6 0.00 0.00 0.00 82 1020.0
20260506081932 13 249 0.0 1.6 0.00 0.00 0.00 82 1019.9
20260506081431 13 290 0.0 1.6 0.00 0.00 0.00 82 1020.0
20260506080928 13 273 1.6 3.2 0.00 0.00 0.00 82 1019.9
20260506080425 13 278 0.0 0.0 0.00 0.00 0.00 81 1020.0
20260506073409 14 217 0.0 1.6 0.00 0.00 0.00 82 1019.4
20260506072906 14 316 1.6 3.2 0.00 0.00 0.00 82 1019.5
20260506072403 14 298 3.2 3.2 0.00 0.00 0.00 81 1019.6
20260506071900 14 282 0.0 0.0 0.00 0.00 0.00 81 1019.6
20260506071359 14 312 3.2 3.2 0.00 0.00 0.00 81 1019.5
20260506070855 14 320 4.8 4.8 0.00 0.00 0.00 81 1019.6
20260506070352 14 252 3.2 3.2 0.00 0.00 0.00 81 1019.4
20260506062329 14 313 6.4 9.7 0.00 0.00 0.00 80 1019.2
20260506061825 14 336 3.2 4.8 0.00 0.00 0.00 80 1019.3
20260506061322 14 317 4.8 6.4 0.00 0.00 0.00 79 1019.1
20260506060820 14 231 1.6 1.6 0.00 0.00 0.00 79 1019.0
20260506060318 14 108 1.6 1.6 0.00 0.00 0.00 79 1019.1
20260506051249 15 340 3.2 3.2 0.00 0.00 0.00 76 1018.8
20260506050747 15 301 3.2 4.8 0.00 0.00 0.00 76 1018.9
20260506050244 15 213 1.6 1.6 0.00 0.00 0.00 76 1018.5
20260506044735 15 310 3.2 4.8 0.00 0.00 0.00 76 1018.6
20260506044232 15 242 0.0 0.0 0.00 0.00 0.00 76 1018.6
20260506043730 15 337 1.6 3.2 0.00 0.00 0.00 76 1018.5
20260506043227 15 326 3.2 3.2 0.00 0.00 0.00 76 1018.4
20260506042726 15 203 0.0 1.6 0.00 0.00 0.00 75 1018.4
20260506042224 15 188 1.6 1.6 0.00 0.00 0.00 75 1018.4
20260506041722 15 238 0.0 0.0 0.00 0.00 0.00 75 1018.1
20260506041219 15 228 0.0 1.6 0.00 0.00 0.00 74 1018.2
20260506040716 15 209 1.6 1.6 0.00 0.00 0.00 74 1018.1
20260506040213 15 186 0.0 0.0 0.00 0.00 0.00 73 1018.1
20260506035710 15 189 0.0 0.0 0.00 0.00 0.00 73 1018.0
20260506035207 15 201 0.0 0.0 0.00 0.00 0.00 73 1017.9
20260506034703 15 188 0.0 0.0 0.00 0.00 0.00 73 1017.8
20260506034201 15 210 0.0 1.6 0.00 0.00 0.00 72 1017.8
20260506033658 15 208 0.0 0.0 0.00 0.00 0.00 72 1017.7
20260506033155 15 227 0.0 0.0 0.00 0.00 0.00 72 1017.6
20260506032652 15 307 3.2 3.2 0.00 0.00 0.00 72 1017.5
20260506032149 15 224 0.0 1.6 0.00 0.00 0.00 72 1017.5
20260506031645 15 209 1.6 1.6 0.00 0.00 0.00 72 1017.5
20260506031142 15 197 0.0 0.0 0.00 0.00 0.00 73 1017.5
20260506030641 15 249 0.0 1.6 0.00 0.00 0.00 73 1017.3
20260506030138 15 253 1.6 1.6 0.00 0.00 0.00 73 1017.3
20260506025635 15 309 0.0 1.6 0.00 0.00 0.00 73 1017.2
20260506025131 15 326 3.2 3.2 0.00 0.00 0.00 73 1017.3
20260506024629 15 208 1.6 1.6 0.00 0.00 0.00 73 1017.1
20260506024124 15 210 1.6 1.6 0.00 0.00 0.00 73 1017.1
20260506023621 15 219 0.0 1.6 0.00 0.00 0.00 73 1017.1
20260506023118 15 243 1.6 1.6 0.00 0.00 0.00 73 1017.0
20260506022616 15 223 1.6 1.6 0.00 0.00 0.00 73 1017.1
20260506022113 15 268 1.6 3.2 0.00 0.00 0.00 73 1017.1
20260506021611 15 217 0.0 1.6 0.00 0.00 0.00 72 1016.8
20260506021108 16 190 0.0 0.0 0.00 0.00 0.00 72 1016.9
20260506020605 15 189 0.0 1.6 0.00 0.00 0.00 72 1017.0
20260506015600 15 258 1.6 1.6 0.00 0.00 0.00 72 1017.1
20260506015056 16 264 1.6 3.2 0.00 0.00 0.00 72 1017.0
20260506014554 16 228 0.0 0.0 0.00 0.00 0.00 72 1017.0
20260506014049 16 200 1.6 1.6 0.00 0.00 0.00 72 1017.0
20260506013548 16 266 1.6 1.6 0.00 0.00 0.00 72 1017.1
20260506013044 16 211 1.6 1.6 0.00 0.00 0.00 72 1017.0
20260506012540 16 307 1.6 3.2 0.00 0.00 0.00 71 1016.9
20260506012037 16 193 0.0 1.6 0.00 0.00 0.00 72 1016.8
20260506011535 16 175 0.0 1.6 0.00 0.00 0.00 71 1016.9
20260506011031 16 308 1.6 3.2 0.00 0.00 0.00 71 1016.9
20260506010530 16 207 0.0 0.0 0.00 0.00 0.00 72 1016.8
20260506010026 16 288 1.6 1.6 0.00 0.00 0.00 71 1016.8
20260506005523 16 193 1.6 1.6 0.00 0.00 0.00 72 1016.9
20260506005019 16 210 3.2 3.2 0.00 0.00 0.00 72 1016.8
20260506004517 16 208 0.0 0.0 0.00 0.00 0.00 72 1016.9
20260506004013 16 320 3.2 4.8 0.00 0.00 0.00 72 1016.7
20260506003510 16 355 6.4 6.4 0.00 0.00 0.00 71 1016.8
20260506003005 16 272 1.6 1.6 0.00 0.00 0.00 71 1016.4
20260506002502 16 214 1.6 1.6 0.00 0.00 0.00 71 1016.7
20260506001957 17 239 1.6 3.2 0.00 0.00 0.00 69 1016.4
20260506001454 17 188 0.0 0.0 0.00 0.00 0.00 69 1016.7
20260506000952 17 169 0.0 0.0 0.00 0.00 0.00 69 1016.5
20260506000449 17 176 0.0 0.0 0.00 0.00 0.00 68 1016.3
20260505235946 17 177 0.0 0.0 0.00 0.00 0.00 67 1016.5
20260505235444 17 180 0.0 0.0 0.00 0.00 0.00 66 1016.5
20260505234940 17 187 0.0 1.6 0.00 0.00 0.00 66 1016.3
20260505234438 17 185 0.0 0.0 0.00 0.00 0.00 66 1016.3
20260505233934 17 205 0.0 0.0 0.00 0.00 0.00 65 1016.5
20260505233432 17 206 0.0 0.0 0.00 0.00 0.00 65 1016.5
20260505232930 17 170 0.0 0.0 0.00 0.00 0.00 66 1016.6